| time (UTC) | temp F | wind direction | speed knots | gust knots | rain 1hr in | rain 24hr in | rain mn in | humidity % | barometer mb |
| 20260505102038 | 56 | 0 | 0.0 | 0.9 | 0.00 | 0.00 | 0.00 | 80 | 1016.7 |
| 20260505101554 | 56 | 0 | 0.0 | 0.9 | 0.00 | 0.00 | 0.00 | 80 | 1016.6 |
| 20260505101038 | 56 | 0 | 0.0 | 0.0 | 0.00 | 0.00 | 0.00 | 79 | 1016.6 |
| 20260505100538 | 56 | 0 | 0.0 | 0.0 | 0.00 | 0.00 | 0.00 | 79 | 1016.4 |
| 20260505100046 | 57 | 0 | 0.0 | 0.0 | 0.00 | 0.00 | 0.00 | 79 | 1016.3 |
| 20260505095538 | 57 | 0 | 0.0 | 0.0 | 0.00 | 0.00 | 0.00 | 79 | 1016.3 |
| 20260505095037 | 57 | 0 | 0.0 | 0.0 | 0.00 | 0.00 | 0.00 | 78 | 1016.3 |
| 20260505094548 | 57 | 0 | 0.0 | 0.9 | 0.00 | 0.00 | 0.00 | 78 | 1016.2 |
| 20260505094038 | 57 | 0 | 0.0 | 0.9 | 0.00 | 0.00 | 0.00 | 78 | 1016.1 |
| 20260505093539 | 58 | 0 | 0.0 | 1.7 | 0.00 | 0.00 | 0.00 | 78 | 1016.2 |
| 20260505093044 | 58 | 0 | 0.0 | 1.7 | 0.00 | 0.00 | 0.00 | 78 | 1016.1 |
| 20260505092538 | 58 | 0 | 0.0 | 1.7 | 0.00 | 0.00 | 0.00 | 78 | 1016.0 |
| 20260505092038 | 58 | 0 | 0.0 | 0.9 | 0.00 | 0.00 | 0.00 | 78 | 1016.0 |
| 20260505091543 | 58 | 0 | 0.0 | 1.7 | 0.00 | 0.00 | 0.00 | 78 | 1016.0 |
| 20260505091037 | 58 | 0 | 0.0 | 1.7 | 0.00 | 0.00 | 0.00 | 78 | 1015.9 |
| 20260505090538 | 58 | 202 | 0.0 | 1.7 | 0.00 | 0.00 | 0.00 | 78 | 1016.0 |
| 20260505085538 | 58 | 0 | 0.0 | 2.6 | 0.00 | 0.01 | 0.00 | 78 | 1016.1 |
| 20260505085038 | 58 | 0 | 0.9 | 2.6 | 0.00 | 0.01 | 0.00 | 78 | 1016.0 |
| 20260505084550 | 58 | 120 | 0.9 | 3.5 | 0.00 | 0.01 | 0.00 | 78 | 1016.0 |
| 20260505084038 | 58 | 157 | 0.0 | 3.5 | 0.00 | 0.01 | 0.00 | 78 | 1015.9 |
| 20260505083537 | 58 | 109 | 0.9 | 3.5 | 0.00 | 0.01 | 0.00 | 77 | 1015.9 |
| 20260505083055 | 58 | 113 | 0.9 | 2.6 | 0.00 | 0.01 | 0.00 | 77 | 1015.8 |
| 20260505082538 | 58 | 131 | 0.9 | 2.6 | 0.00 | 0.01 | 0.00 | 77 | 1015.8 |
| 20260505082038 | 58 | 113 | 0.9 | 1.7 | 0.00 | 0.01 | 0.00 | 77 | 1015.8 |
| 20260505081547 | 58 | 113 | 0.9 | 2.6 | 0.00 | 0.01 | 0.00 | 77 | 1015.9 |
| 20260505081038 | 58 | 104 | 0.0 | 2.6 | 0.00 | 0.01 | 0.00 | 77 | 1015.9 |
| 20260505080539 | 58 | 0 | 0.9 | 2.6 | 0.00 | 0.01 | 0.00 | 77 | 1016.0 |
| 20260505080053 | 58 | 119 | 0.0 | 1.7 | 0.00 | 0.01 | 0.00 | 77 | 1015.9 |
| 20260505075542 | 58 | 137 | 0.0 | 1.7 | 0.00 | 0.01 | 0.00 | 77 | 1015.8 |
| 20260505075039 | 58 | 0 | 0.0 | 1.7 | 0.00 | 0.01 | 0.00 | 77 | 1015.8 |
| 20260505074549 | 58 | 0 | 0.0 | 2.6 | 0.00 | 0.01 | 0.00 | 77 | 1015.7 |
| 20260505074038 | 57 | 112 | 0.9 | 2.6 | 0.00 | 0.01 | 0.00 | 77 | 1015.7 |
| 20260505073538 | 57 | 69 | 0.0 | 2.6 | 0.00 | 0.01 | 0.00 | 77 | 1015.7 |
| 20260505073059 | 57 | 0 | 0.0 | 2.6 | 0.00 | 0.01 | 0.00 | 77 | 1015.7 |
| 20260505072542 | 57 | 0 | 0.0 | 2.6 | 0.00 | 0.01 | 0.00 | 76 | 1015.6 |
| 20260505072039 | 57 | 134 | 0.0 | 2.6 | 0.00 | 0.01 | 0.00 | 76 | 1015.7 |
| 20260505071545 | 57 | 129 | 0.9 | 2.6 | 0.00 | 0.01 | 0.00 | 76 | 1015.7 |
| 20260505071038 | 58 | 0 | 0.0 | 0.9 | 0.00 | 0.01 | 0.00 | 76 | 1015.7 |
| 20260505070538 | 58 | 0 | 0.0 | 1.7 | 0.00 | 0.01 | 0.00 | 75 | 1015.7 |
| 20260505070046 | 58 | 0 | 0.0 | 1.7 | 0.00 | 0.01 | 0.00 | 75 | 1015.7 |
| 20260505065538 | 58 | 155 | 0.0 | 1.7 | 0.00 | 0.01 | 0.00 | 75 | 1015.6 |
| 20260505065038 | 58 | 0 | 0.0 | 1.7 | 0.00 | 0.01 | 0.00 | 75 | 1015.6 |
| 20260505064549 | 58 | 0 | 0.0 | 1.7 | 0.00 | 0.01 | 0.00 | 74 | 1015.6 |
| 20260505064037 | 58 | 0 | 0.0 | 1.7 | 0.00 | 0.01 | 0.00 | 74 | 1015.6 |
| 20260505063537 | 58 | 27 | 0.0 | 1.7 | 0.00 | 0.01 | 0.00 | 74 | 1015.7 |
| 20260505063048 | 58 | 0 | 0.0 | 0.9 | 0.00 | 0.01 | 0.00 | 73 | 1015.7 |
| 20260505062537 | 58 | 0 | 0.0 | 1.7 | 0.00 | 0.01 | 0.00 | 73 | 1015.8 |
| 20260505062037 | 59 | 82 | 0.0 | 1.7 | 0.00 | 0.01 | 0.00 | 73 | 1015.7 |
| 20260505061552 | 59 | 72 | 0.0 | 0.9 | 0.00 | 0.01 | 0.00 | 73 | 1015.8 |
| 20260505061038 | 59 | 0 | 0.0 | 2.6 | 0.00 | 0.01 | 0.00 | 72 | 1015.8 |
| 20260505060538 | 59 | 0 | 0.0 | 2.6 | 0.00 | 0.01 | 0.00 | 72 | 1015.9 |
| 20260505060049 | 59 | 110 | 0.0 | 2.6 | 0.00 | 0.01 | 0.00 | 72 | 1015.9 |
| 20260505055538 | 59 | 0 | 0.0 | 2.6 | 0.00 | 0.01 | 0.00 | 72 | 1015.9 |
| 20260505055038 | 59 | 0 | 0.0 | 1.7 | 0.00 | 0.01 | 0.00 | 72 | 1016.0 |
| 20260505054548 | 59 | 0 | 0.0 | 1.7 | 0.00 | 0.01 | 0.00 | 71 | 1016.0 |
| 20260505054038 | 60 | 0 | 0.0 | 1.7 | 0.00 | 0.01 | 0.00 | 71 | 1016.0 |
| 20260505053537 | 60 | 0 | 0.0 | 0.9 | 0.00 | 0.01 | 0.00 | 70 | 1016.0 |
| 20260505053102 | 60 | 0 | 0.0 | 0.9 | 0.00 | 0.01 | 0.00 | 70 | 1016.1 |
| 20260505052537 | 60 | 0 | 0.0 | 0.9 | 0.00 | 0.01 | 0.00 | 70 | 1016.1 |
| 20260505052038 | 60 | 0 | 0.0 | 0.9 | 0.00 | 0.01 | 0.00 | 70 | 1016.1 |
| 20260505051554 | 60 | 195 | 0.0 | 0.9 | 0.00 | 0.01 | 0.00 | 69 | 1016.1 |
| 20260505051039 | 61 | 205 | 0.0 | 1.7 | 0.00 | 0.01 | 0.00 | 69 | 1016.2 |
| 20260505050538 | 61 | 0 | 0.0 | 2.6 | 0.00 | 0.01 | 0.00 | 68 | 1016.2 |
| 20260505041548 | 62 | 0 | 0.0 | 1.7 | 0.00 | 0.01 | 0.00 | 66 | 1016.3 |
| 20260505041038 | 62 | 155 | 0.0 | 1.7 | 0.00 | 0.01 | 0.00 | 65 | 1016.2 |
| 20260505040538 | 62 | 0 | 0.0 | 2.6 | 0.00 | 0.01 | 0.00 | 65 | 1016.3 |
| 20260505040049 | 62 | 160 | 0.0 | 2.6 | 0.00 | 0.01 | 0.00 | 65 | 1016.3 |
| 20260505035538 | 63 | 151 | 0.9 | 2.6 | 0.00 | 0.01 | 0.01 | 64 | 1016.3 |
| 20260505035041 | 63 | 172 | 0.0 | 2.6 | 0.00 | 0.01 | 0.01 | 64 | 1016.3 |
| 20260505034546 | 63 | 0 | 0.9 | 2.6 | 0.00 | 0.01 | 0.01 | 63 | 1016.2 |
| 20260505034038 | 63 | 16 | 0.0 | 1.7 | 0.00 | 0.01 | 0.01 | 64 | 1016.2 |
| 20260505033540 | 63 | 0 | 0.0 | 1.7 | 0.00 | 0.01 | 0.01 | 63 | 1016.3 |
| 20260505033109 | 62 | 91 | 0.0 | 2.6 | 0.00 | 0.01 | 0.01 | 63 | 1016.3 |
| 20260505032537 | 62 | 153 | 0.0 | 3.5 | 0.00 | 0.01 | 0.01 | 63 | 1016.3 |
| 20260505032038 | 62 | 147 | 0.9 | 3.5 | 0.00 | 0.01 | 0.01 | 63 | 1016.3 |
| 20260505031549 | 62 | 0 | 0.0 | 2.6 | 0.00 | 0.01 | 0.01 | 63 | 1016.3 |
| 20260505031040 | 62 | 0 | 0.9 | 2.6 | 0.00 | 0.01 | 0.01 | 63 | 1016.2 |
| 20260505030538 | 62 | 151 | 0.0 | 2.6 | 0.00 | 0.01 | 0.01 | 64 | 1016.2 |
| 20260505030046 | 61 | 134 | 0.0 | 2.6 | 0.00 | 0.01 | 0.01 | 62 | 1016.2 |
| 20260505025538 | 61 | 183 | 0.9 | 2.6 | 0.00 | 0.01 | 0.01 | 63 | 1016.3 |
| 20260505025040 | 61 | 0 | 0.0 | 1.7 | 0.00 | 0.01 | 0.01 | 61 | 1016.2 |
| 20260505024544 | 62 | 0 | 0.0 | 1.7 | 0.00 | 0.01 | 0.01 | 60 | 1016.2 |
| 20260505024038 | 62 | 0 | 0.0 | 0.9 | 0.00 | 0.01 | 0.01 | 59 | 1016.1 |
| 20260505023538 | 62 | 148 | 0.0 | 0.0 | 0.00 | 0.01 | 0.01 | 59 | 1016.1 |
| 20260505023059 | 62 | 0 | 0.0 | 0.0 | 0.00 | 0.01 | 0.01 | 59 | 1016.1 |
| 20260505022538 | 62 | 0 | 0.0 | 0.0 | 0.00 | 0.01 | 0.01 | 59 | 1015.9 |
| 20260505022040 | 62 | 0 | 0.0 | 0.0 | 0.00 | 0.01 | 0.01 | 58 | 1015.9 |
| 20260505021552 | 62 | 0 | 0.0 | 0.0 | 0.00 | 0.01 | 0.01 | 57 | 1015.9 |
| 20260505021038 | 62 | 0 | 0.0 | 0.0 | 0.00 | 0.01 | 0.01 | 57 | 1015.9 |
| 20260505020538 | 63 | 0 | 0.0 | 0.0 | 0.00 | 0.01 | 0.01 | 57 | 1015.8 |
| 20260505020051 | 63 | 0 | 0.0 | 0.9 | 0.00 | 0.01 | 0.01 | 57 | 1015.8 |
| 20260505015538 | 63 | 0 | 0.0 | 0.9 | 0.00 | 0.01 | 0.01 | 56 | 1015.7 |
| 20260505015040 | 63 | 0 | 0.0 | 0.9 | 0.00 | 0.01 | 0.01 | 56 | 1015.7 |
| 20260505014542 | 63 | 0 | 0.0 | 0.0 | 0.00 | 0.01 | 0.01 | 55 | 1015.7 |
| 20260505014037 | 63 | 0 | 0.0 | 0.0 | 0.00 | 0.01 | 0.01 | 55 | 1015.6 |
| 20260505013537 | 63 | 0 | 0.0 | 0.0 | 0.00 | 0.01 | 0.01 | 53 | 1015.6 |
| 20260505013053 | 64 | 0 | 0.0 | 0.0 | 0.00 | 0.01 | 0.01 | 53 | 1015.5 |
| 20260505012538 | 64 | 0 | 0.0 | 0.0 | 0.00 | 0.01 | 0.01 | 51 | 1015.5 |
| 20260505012038 | 64 | 0 | 0.0 | 0.0 | 0.00 | 0.01 | 0.01 | 50 | 1015.4 |
| 20260505011541 | 64 | 0 | 0.0 | 0.0 | 0.00 | 0.01 | 0.01 | 50 | 1015.3 |
| 20260505011039 | 65 | 0 | 0.0 | 0.0 | 0.00 | 0.01 | 0.01 | 51 | 1015.3 |
| 20260505010538 | 65 | 0 | 0.0 | 0.0 | 0.00 | 0.01 | 0.01 | 49 | 1015.2 |
| 20260505010044 | 65 | 0 | 0.0 | 0.9 | 0.00 | 0.01 | 0.01 | 48 | 1015.2 |
| 20260505005538 | 66 | 0 | 0.0 | 0.9 | 0.00 | 0.01 | 0.01 | 49 | 1015.1 |
| 20260505005038 | 66 | 0 | 0.0 | 0.0 | 0.00 | 0.01 | 0.01 | 47 | 1015.1 |
| 20260505004549 | 66 | 0 | 0.0 | 0.9 | 0.00 | 0.01 | 0.01 | 47 | 1015.1 |
| 20260505004037 | 67 | 0 | 0.0 | 0.9 | 0.00 | 0.01 | 0.01 | 46 | 1014.9 |
| 20260505003537 | 67 | 0 | 0.0 | 0.0 | 0.00 | 0.01 | 0.01 | 45 | 1014.8 |
| 20260505003044 | 68 | 0 | 0.0 | 0.0 | 0.00 | 0.01 | 0.01 | 45 | 1014.9 |
| 20260505002537 | 68 | 0 | 0.0 | 0.0 | 0.00 | 0.01 | 0.01 | 51 | 1014.7 |
| 20260505002037 | 69 | 0 | 0.0 | 0.0 | 0.00 | 0.01 | 0.01 | 44 | 1014.7 |
| 20260505001542 | 69 | 0 | 0.0 | 0.0 | 0.00 | 0.01 | 0.01 | 43 | 1014.6 |
| 20260505001038 | 70 | 0 | 0.0 | 0.0 | 0.00 | 0.01 | 0.01 | 42 | 1014.6 |
| 20260505000541 | 70 | 0 | 0.0 | 0.0 | 0.00 | 0.01 | 0.01 | 42 | 1014.7 |
| 20260505000045 | 70 | 0 | 0.0 | 0.0 | 0.00 | 0.01 | 0.01 | 42 | 1014.6 |
| 20260504235538 | 71 | 0 | 0.0 | 0.9 | 0.00 | 0.01 | 0.01 | 41 | 1014.5 |
| 20260504235039 | 71 | 0 | 0.0 | 0.9 | 0.00 | 0.01 | 0.01 | 42 | 1014.5 |
| 20260504234612 | 71 | 0 | 0.0 | 0.9 | 0.00 | 0.01 | 0.01 | 40 | 1014.4 |
| 20260504234038 | 71 | 0 | 0.0 | 0.9 | 0.00 | 0.01 | 0.01 | 37 | 1014.4 |
| 20260504233538 | 72 | 0 | 0.0 | 1.7 | 0.00 | 0.01 | 0.01 | 34 | 1014.4 |
| 20260504233043 | 72 | 0 | 0.0 | 2.6 | 0.00 | 0.01 | 0.01 | 34 | 1014.4 |
| 20260504232539 | 73 | 0 | 0.0 | 2.6 | 0.00 | 0.01 | 0.01 | 35 | 1014.3 |
| 20260504232038 | 73 | 0 | 0.0 | 1.7 | 0.00 | 0.01 | 0.01 | 35 | 1014.3 |
| 20260504231552 | 73 | 168 | 0.0 | 1.7 | 0.00 | 0.01 | 0.01 | 34 | 1014.3 |
| 20260504231038 | 74 | 0 | 0.0 | 1.7 | 0.00 | 0.01 | 0.01 | 40 | 1014.3 |
| 20260504230538 | 75 | 0 | 0.0 | 3.5 | 0.00 | 0.01 | 0.01 | 38 | 1014.2 |
| 20260504230043 | 75 | 160 | 0.0 | 3.5 | 0.00 | 0.01 | 0.01 | 38 | 1014.2 |
| 20260504225539 | 75 | 154 | 0.9 | 3.5 | 0.00 | 0.01 | 0.01 | 34 | 1014.3 |
| 20260504225040 | 75 | 157 | 0.9 | 3.5 | 0.00 | 0.01 | 0.01 | 34 | 1014.3 |
| 20260504224542 | 75 | 125 | 0.9 | 5.2 | 0.00 | 0.01 | 0.01 | 34 | 1014.1 |
| 20260504224038 | 75 | 0 | 0.9 | 5.2 | 0.00 | 0.01 | 0.01 | 35 | 1014.2 |
| 20260504223538 | 75 | 146 | 0.9 | 3.5 | 0.00 | 0.01 | 0.01 | 35 | 1014.2 |
| 20260504223047 | 76 | 157 | 0.9 | 2.6 | 0.00 | 0.01 | 0.01 | 35 | 1014.2 |
| 20260504222539 | 76 | 0 | 0.0 | 4.3 | 0.00 | 0.01 | 0.01 | 35 | 1014.2 |
| 20260504222037 | 76 | 143 | 0.9 | 4.3 | 0.00 | 0.01 | 0.01 | 33 | 1014.2 |
| 20260504221605 | 76 | 156 | 0.9 | 2.6 | 0.00 | 0.01 | 0.01 | 34 | 1014.1 |
| 20260504221038 | 76 | 153 | 0.9 | 3.5 | 0.00 | 0.01 | 0.01 | 34 | 1014.1 |
| 20260504220538 | 76 | 191 | 0.9 | 3.5 | 0.00 | 0.01 | 0.01 | 32 | 1014.1 |
| 20260504220050 | 76 | 173 | 0.0 | 3.5 | 0.00 | 0.01 | 0.01 | 32 | 1014.1 |
| 20260504215538 | 77 | 72 | 0.0 | 3.5 | 0.00 | 0.01 | 0.01 | 32 | 1014.1 |
| 20260504215038 | 77 | 167 | 0.0 | 4.3 | 0.00 | 0.01 | 0.01 | 34 | 1014.1 |
| 20260504214556 | 77 | 175 | 1.7 | 4.3 | 0.00 | 0.01 | 0.01 | 32 | 1014.1 |
| 20260504214038 | 77 | 193 | 0.9 | 3.5 | 0.00 | 0.01 | 0.01 | 35 | 1014.0 |
| 20260504213538 | 78 | 195 | 0.9 | 3.5 | 0.00 | 0.01 | 0.01 | 34 | 1014.1 |
| 20260504213101 | 78 | 168 | 0.9 | 3.5 | 0.00 | 0.01 | 0.01 | 31 | 1014.1 |
| 20260504212538 | 78 | 129 | 0.9 | 3.5 | 0.00 | 0.01 | 0.01 | 33 | 1014.1 |
| 20260504212041 | 78 | 119 | 0.9 | 3.5 | 0.00 | 0.01 | 0.01 | 31 | 1014.2 |
| 20260504211547 | 78 | 158 | 0.9 | 3.5 | 0.00 | 0.01 | 0.01 | 30 | 1014.0 |
| 20260504211038 | 79 | 153 | 0.9 | 3.5 | 0.00 | 0.01 | 0.01 | 30 | 1014.2 |
| 20260504210538 | 79 | 17 | 0.9 | 5.2 | 0.00 | 0.01 | 0.01 | 30 | 1014.1 |
| 20260504210056 | 80 | 209 | 1.7 | 5.2 | 0.00 | 0.01 | 0.01 | 28 | 1014.2 |
| 20260504205539 | 80 | 207 | 0.9 | 4.3 | 0.00 | 0.01 | 0.01 | 28 | 1014.3 |
| 20260504205041 | 80 | 176 | 0.9 | 6.1 | 0.00 | 0.01 | 0.01 | 28 | 1014.3 |
| 20260504204625 | 80 | 193 | 0.9 | 6.1 | 0.00 | 0.01 | 0.01 | 27 | 1014.4 |
| 20260504204037 | 80 | 105 | 1.7 | 6.1 | 0.00 | 0.01 | 0.01 | 28 | 1014.3 |
| 20260504203542 | 81 | 206 | 0.9 | 4.3 | 0.00 | 0.01 | 0.01 | 29 | 1014.4 |
| 20260504203048 | 81 | 126 | 1.7 | 4.3 | 0.00 | 0.01 | 0.01 | 26 | 1014.5 |
| 20260504202538 | 81 | 151 | 0.9 | 4.3 | 0.00 | 0.01 | 0.01 | 29 | 1014.6 |
| 20260504202042 | 81 | 320 | 0.9 | 5.2 | 0.00 | 0.01 | 0.01 | 29 | 1014.5 |
| 20260504201546 | 81 | 124 | 1.7 | 5.2 | 0.00 | 0.01 | 0.01 | 30 | 1014.5 |
| 20260504201039 | 81 | 0 | 0.9 | 4.3 | 0.00 | 0.01 | 0.01 | 28 | 1014.6 |
| 20260504200538 | 81 | 177 | 0.9 | 4.3 | 0.00 | 0.01 | 0.01 | 31 | 1014.6 |
| 20260504200042 | 81 | 142 | 1.7 | 4.3 | 0.00 | 0.01 | 0.01 | 26 | 1014.7 |
| 20260504195538 | 81 | 141 | 1.7 | 4.3 | 0.00 | 0.01 | 0.01 | 25 | 1014.7 |
| 20260504195041 | 81 | 145 | 1.7 | 3.5 | 0.00 | 0.01 | 0.01 | 26 | 1014.7 |
| 20260504194552 | 81 | 124 | 1.7 | 3.5 | 0.00 | 0.01 | 0.01 | 29 | 1014.8 |
| 20260504194038 | 81 | 120 | 0.9 | 3.5 | 0.00 | 0.01 | 0.01 | 32 | 1014.9 |
| 20260504193537 | 81 | 162 | 1.7 | 3.5 | 0.00 | 0.01 | 0.01 | 29 | 1015.1 |
| 20260504193046 | 81 | 102 | 1.7 | 3.5 | 0.00 | 0.01 | 0.01 | 28 | 1015.1 |
| 20260504192538 | 80 | 212 | 1.7 | 3.5 | 0.00 | 0.01 | 0.01 | 30 | 1015.1 |
| 20260504192038 | 80 | 154 | 0.9 | 2.6 | 0.00 | 0.01 | 0.01 | 31 | 1015.1 |
| 20260504191545 | 80 | 0 | 0.9 | 3.5 | 0.00 | 0.01 | 0.01 | 29 | 1015.2 |
| 20260504191038 | 79 | 0 | 0.9 | 3.5 | 0.00 | 0.01 | 0.01 | 36 | 1015.3 |
| 20260504190538 | 79 | 0 | 0.9 | 3.5 | 0.00 | 0.01 | 0.01 | 30 | 1015.5 |
| 20260504190059 | 79 | 139 | 1.7 | 3.5 | 0.00 | 0.01 | 0.01 | 33 | 1015.4 |
| 20260504185538 | 79 | 99 | 0.9 | 2.6 | 0.00 | 0.01 | 0.01 | 33 | 1015.5 |
| 20260504185038 | 79 | 178 | 0.9 | 4.3 | 0.00 | 0.01 | 0.01 | 37 | 1015.6 |
| 20260504184601 | 78 | 104 | 0.9 | 5.2 | 0.00 | 0.01 | 0.01 | 35 | 1015.7 |
| 20260504184038 | 78 | 138 | 1.7 | 5.2 | 0.00 | 0.01 | 0.01 | 35 | 1015.8 |
| 20260504183538 | 78 | 145 | 0.9 | 2.6 | 0.00 | 0.01 | 0.01 | 40 | 1015.9 |
| 20260504183058 | 78 | 127 | 0.9 | 2.6 | 0.00 | 0.01 | 0.01 | 33 | 1015.9 |
| 20260504182541 | 77 | 195 | 0.9 | 4.3 | 0.00 | 0.01 | 0.01 | 31 | 1016.0 |
| 20260504182038 | 78 | 0 | 0.9 | 4.3 | 0.00 | 0.01 | 0.01 | 34 | 1016.1 |
| 20260504181550 | 78 | 0 | 0.0 | 3.5 | 0.00 | 0.01 | 0.01 | 35 | 1016.1 |
| 20260504181038 | 78 | 158 | 0.9 | 3.5 | 0.00 | 0.01 | 0.01 | 35 | 1016.2 |
| 20260504180538 | 77 | 94 | 0.9 | 3.5 | 0.00 | 0.01 | 0.01 | 38 | 1016.2 |
| 20260504180048 | 77 | 195 | 0.9 | 4.3 | 0.00 | 0.01 | 0.01 | 39 | 1016.3 |
| 20260504175537 | 76 | 155 | 0.0 | 4.3 | 0.00 | 0.01 | 0.01 | 40 | 1016.3 |
| 20260504175042 | 76 | 189 | 0.9 | 4.3 | 0.00 | 0.01 | 0.01 | 39 | 1016.3 |
| 20260504174551 | 76 | 0 | 0.9 | 5.2 | 0.00 | 0.01 | 0.01 | 37 | 1016.3 |
| 20260504174038 | 76 | 359 | 0.9 | 5.2 | 0.00 | 0.01 | 0.01 | 33 | 1016.3 |
| 20260504173538 | 76 | 328 | 0.9 | 5.2 | 0.00 | 0.01 | 0.01 | 37 | 1016.3 |
| 20260504173052 | 75 | 126 | 0.9 | 6.1 | 0.00 | 0.01 | 0.01 | 34 | 1016.4 |
| 20260504172538 | 75 | 117 | 0.9 | 6.1 | 0.00 | 0.01 | 0.01 | 38 | 1016.5 |
| 20260504172038 | 75 | 19 | 1.7 | 7.8 | 0.00 | 0.01 | 0.01 | 37 | 1016.5 |
| 20260504171547 | 74 | 330 | 2.6 | 7.8 | 0.00 | 0.01 | 0.01 | 38 | 1016.6 |
| 20260504171038 | 75 | 0 | 0.9 | 6.1 | 0.00 | 0.01 | 0.01 | 34 | 1016.7 |
| 20260504170538 | 74 | 98 | 2.6 | 6.1 | 0.00 | 0.01 | 0.01 | 41 | 1016.8 |
| 20260504151039 | 69 | 118 | 0.9 | 6.1 | 0.00 | 0.01 | 0.01 | 46 | 1018.0 |
| 20260504150540 | 69 | 353 | 1.7 | 6.1 | 0.00 | 0.01 | 0.01 | 48 | 1018.0 |
| 20260504141037 | 65 | 326 | 1.7 | 6.1 | 0.00 | 0.01 | 0.01 | 54 | 1018.1 |
| 20260504140538 | 65 | 1 | 0.9 | 6.1 | 0.00 | 0.01 | 0.01 | 56 | 1018.1 |
| 20260504130538 | 58 | 0 | 0.0 | 1.7 | 0.00 | 0.01 | 0.01 | 75 | 1017.6 |
| 20260504110538 | 47 | 0 | 0.0 | 0.0 | 0.00 | 0.02 | 0.01 | 90 | 1017.5 |